Chilapa Escoba Tercera Seccion, Mexico

6:17 AM CDT on September 24, 2017 (GMT -0500)
C P A Carlos Rovirosa International | | Change Station

Elev 43 ft 18.00 °N, 92.82 °W | Updated 28 minutes ago

Rain
Rain
75 °F
Feels Like 75 °F
N
0
Wind Variable Wind from North

Today
High -- | Low -- °F
--% Chance of Precip.
Yesterday
High -- | Low -- °F
Precip. -- in
Pressure 29.78 in
Visibility 5.0 miles
Clouds Scattered Clouds 1000 ft
Mostly Cloudy 2000 ft
Dew Point 75 °F
Humidity 100%
Rainfall 0.00 in
Snow Depth Not available.
7:00 AM 7:05 PM
Waxing Crescent, 18% visible
METAR MMVA 241049Z 00000KT 5SM -RA SCT010 BKN020 24/24 A2978 RMK 8/500 BR
Pressure 29.78 in
Visibility 5.0 miles
Clouds Scattered Clouds 1000 ft
Mostly Cloudy 2000 ft
Dew Point 75 °F
Humidity 100%
Rainfall 0.00 in
Snow Depth Not available.
7:00 AM 7:05 PM
Waxing Crescent, 18% visible
METAR MMVA 241049Z 00000KT 5SM -RA SCT010 BKN020 24/24 A2978 RMK 8/500 BR

Get Severe Weather Alerts

Thanks for signing up!

Be on the lookout for a verification email in your inbox.

You'll start receiving the daily forecast at 6 AM.

×

10-Day Weather Forecast

No radar image for this location.
×

Almanac

Astronomy

Sep. 24, 2017 Rise Set
Actual Time
Civil Twilight
Nautical Twilight
Astronomical Twilight
Moon
Length of Visible Light
Length of Day
Tomorrow will be .
, % of the Moon is Illuminated

Today's Extremes

Country Highs Country Lows

Community

WunderPhotos

Category 6

Welcome to Category 6. This is the collective home for Weather Underground's featured writeups by Dr. Jeff Masters (right), Bob Henson (left), Chris Burt, and other regular contributors.

Nearby

Air Quality

  Air Quality AQ Index Pollutant
Not available.

Snow Depth

Station Depth Elevation

Earthquake Activity

City Distance Mag. Time & Date
Minimum magnitude displayed is 2.5.

Coastal Water Temperatures

Place Temperature

Stations

Nearby Weather Stations

Station Location Temp. Windchill Dew Point Humidity Wind Precip. Elev Updated Type